Flag for U.S.A. Weather past 2 weeks in Santa Cruz, California, U.S.A.

Now
56 °F

Sunny.


Feels Like: 56 °F
Forecast: 50 / 65 °F
Wind: No wind

Location: Watsonville Municipal Airport


UV Index: 0 (Low)

Visibility: 10 mi


Pressure: 30.07 "Hg

Humidity: 77%

Dew point: 49 °F

Location of Santa CruzLocation

Historic Weather in Santa Cruz

°F

Santa Cruz temperature yesterday

Maximum temperature yesterday: 74 °F (at 2:53 PM)
Minimum temperature yesterday: 48 °F (at 6:53 AM)
Average temperature yesterday: 59 °F

Past Weeks' High & Low Weather Summary

 TemperatureHumidityPressure
High80 °F (Apr 7, 12:53 PM)100% (Apr 8, 9:04 PM)30.23 "Hg (Apr 8, 9:04 PM)
Low47 °F (Apr 21, 5:53 AM)36% (Apr 7, 4:53 PM)29.82 "Hg (Apr 17, 2:53 AM)
Average57 °F80%30.02 "Hg
* Reported Apr 6 7:53 AM — Apr 21 7:53 AM, Santa Cruz, Weather by CustomWeather, © 2014

Note: Actual official high and low records may vary slightly from our data, if they occured in-between our weather recording intervals... More about our weather records

Advertising

Historic Weather Conditions — Data for Previous 24 hours

 ConditionsComfort  
Time TempWeatherWind HumidityBarometerVisibility
7:53 AM
Apr 21
51 °FSunny.No wind83%30.07 "Hg10 mi
6:53 AM47 °FClear.No wind86%30.06 "Hg10 mi
5:53 AM47 °FClear.No wind86%30.06 "Hg10 mi
4:53 AM48 °FClear.No wind83%30.06 "Hg10 mi
3:53 AM49 °FClear.5 mph84%30.07 "Hg10 mi
2:53 AM50 °FClear.3 mph86%30.09 "Hg10 mi
1:53 AM50 °FClear.3 mph89%30.09 "Hg10 mi
12:53 AM52 °FClear.No wind86%30.10 "Hg10 mi
11:53 PM
Apr 20
52 °FClear.No wind86%30.10 "Hg10 mi
10:53 PM54 °FClear.3 mph80%30.09 "Hg10 mi
9:53 PM56 °FClear.No wind75%30.10 "Hg10 mi
8:53 PM56 °FClear.No wind75%30.09 "Hg10 mi
7:53 PM58 °FSunny.8 mph72%30.07 "Hg10 mi
6:53 PM61 °FSunny.5 mph67%30.06 "Hg10 mi
5:53 PM63 °FSunny.6 mph70%30.06 "Hg10 mi
4:53 PM69 °FSunny.6 mph61%30.06 "Hg10 mi
3:53 PM73 °FSunny.7 mph51%30.07 "Hg10 mi
2:53 PM74 °FSunny.8 mph50%30.08 "Hg10 mi
1:53 PM72 °FSunny.8 mph53%30.09 "Hg10 mi
12:53 PM72 °FSunny.7 mph57%30.11 "Hg10 mi
11:53 AM70 °FSunny.3 mph57%30.13 "Hg10 mi
10:53 AM66 °FSunny.3 mph65%30.14 "Hg10 mi
9:53 AM59 °FSunny.No wind78%30.14 "Hg10 mi
Weather by CustomWeather, © 2014

See weather overview